Location: Zagreb
(45.8000°N, 16.0000°E)
Time: 18:30:12
(UTC+02:00)

SR - Pass Details

Date: 17 August 2020
Orbit: 583 x 873 km, 66.7° (Epoch: 28 September)

Event Time Altitude Azimuth Distance (km) Brightness Sun altitude
Rises 03:43:10 0° 337° (NNW) 2,820 ? -20.4°
Reaches altitude 10° 03:46:21 10° 3° (N) 1,935 ? -20.0°
Maximum altitude 03:48:44 14° 37° (NE) 1,686 ? -19.7°
Drops below altitude 10° 03:51:10 10° 70° (ENE) 1,981 ? -19.5°
Sets 03:54:29 0° 95° (E) 2,936 ? -19.0°
